Flag for Norway Weather past 2 weeks in Bardufoss, Norway

Now
46 °F

Light rain. Broken clouds.


Feels Like: 46 °F
Forecast: 45 / 58 °F
Wind: 2 mph from North

Location: Bardufoss

Current Time: May 28, 2015 at 8:48:32 AM

Latest Report: May 28, 2015 at 7:50 AM


Visibility: N/A

Pressure: 29.56 "Hg

Humidity: 87%

Dew point: 43 °F

Location of BardufossLocation

Historic Weather in Bardufoss — Graph

°F

Bardufoss temperature yesterday

Maximum temperature yesterday: 61 °F (at 10:50 AM)
Minimum temperature yesterday: 36 °F (at 1:50 AM)
Average temperature yesterday: 53 °F

Past Weeks' High & Low Weather Summary

 TemperatureHumidityPressure
High61 °F (May 27, 10:50 AM)100% (May 19, 11:50 PM)30.04 "Hg (May 19, 11:50 PM)
Low28 °F (May 16, 1:50 AM)26% (May 22, 9:50 AM)29.45 "Hg (May 23, 10:50 AM)
Average44 °F64%29.74 "Hg
* Reported May 13 7:20 AM — May 28 7:50 AM, Bardufoss, Weather by CustomWeather, © 2015

Note: Actual official high and low records may vary slightly from our data, if they occured in-between our weather recording intervals... More about our weather records

Advertising

Bardufoss weather history for previous 24 hours

 ConditionsComfort  
Time TempWeatherWind HumidityBarometerVisibility
7:50 AM
Thu, May 28
46 °FLight rain. Broken clouds.2 mph87%29.56 "HgN/A
7:20 AM46 °FLight rain. Partly sunny.1 mph87%29.56 "HgN/A
6:50 AM45 °FLight rain. Partly sunny.3 mph93%29.56 "HgN/A
6:20 AM45 °FLight rain. Partly sunny.5 mph93%29.56 "HgN/A
5:50 AM45 °FLight rain. Broken clouds.2 mph93%29.56 "HgN/A
5:20 AM45 °FLight rain. Broken clouds.3 mph87%29.56 "HgN/A
4:50 AM45 °FLight rain. Broken clouds.3 mph87%29.56 "HgN/A
3:50 AM45 °FLight rain. Partly sunny.2 mph81%29.56 "HgN/A
2:50 AM45 °FScattered showers. Partly sunny.1 mph81%29.59 "HgN/A
1:50 AM46 °FPartly sunny.1 mph82%29.59 "HgN/A
12:50 AM48 °FPartly sunny.1 mph76%29.59 "HgN/A
11:50 PM
Wed, May 27
48 °FPartly sunny.3 mph76%29.62 "HgN/A
10:50 PM50 °FScattered showers. Partly sunny.1 mph71%29.62 "HgN/A
9:50 PM52 °FPartly sunny.7 mph67%29.62 "HgN/A
8:50 PM54 °FLight rain. Partly sunny.7 mph63%29.62 "HgN/A
7:50 PM55 °FScattered showers. Partly sunny.6 mph51%29.65 "HgN/A
7:20 PM55 °FPartly sunny.6 mph51%29.65 "HgN/A
6:50 PM55 °FPartly sunny.5 mph51%29.65 "HgN/A
6:20 PM57 °FPartly sunny.6 mph48%29.65 "HgN/A
5:50 PM57 °FBroken clouds.8 mph48%29.65 "HgN/A
5:20 PM55 °FBroken clouds.10 mph51%29.68 "HgN/A
4:50 PM57 °FBroken clouds.9 mph48%29.68 "HgN/A
4:20 PM57 °FBroken clouds.10 mph48%29.68 "HgN/A
3:50 PM57 °FBroken clouds.12 mph48%29.68 "HgN/A
3:20 PM57 °FBroken clouds.15 mph48%29.68 "HgN/A
2:50 PM59 °FBroken clouds.16 mph45%29.68 "HgN/A
2:20 PM57 °FScattered clouds.17 mph48%29.68 "HgN/A
1:50 PM61 °FScattered clouds.14 mph42%29.68 "HgN/A
1:20 PM59 °FScattered clouds.13 mph42%29.71 "HgN/A
12:50 PM61 °FScattered clouds.13 mph39%29.71 "HgN/A
12:20 PM59 °FScattered clouds.9 mph42%29.71 "HgN/A
11:50 AM59 °FScattered clouds.12 mph39%29.71 "HgN/A
11:20 AM61 °FScattered clouds.9 mph39%29.71 "HgN/A
10:50 AM61 °FPassing clouds.6 mph39%29.71 "HgN/A
10:20 AM59 °FPassing clouds.6 mph39%29.71 "HgN/A
9:50 AM59 °FPassing clouds.7 mph42%29.74 "HgN/A
9:20 AM59 °FScattered clouds.2 mph42%29.74 "HgN/A
8:50 AM57 °FScattered clouds.5 mph41%29.74 "HgN/A
8:20 AM55 °FScattered clouds.3 mph44%29.74 "HgN/A
Weather by CustomWeather, © 2015

See weather overviewHow to use our weather pages